Terminal Aerodrome Forecast
Issued by NWS Boston, MA

Home | Current Version | Previous Version | Text Only | Print | Product List | Glossary On
Versions: 1 2 3 4 5 6 7 8 9 10 11 12 13 14 15 16 17 18 19 20 21 22 23 24 25 26 27 28 29 30 31 32 33 34 35 36 37 38 39 40 41 42 43 44 45 46 47 48 49 50
000
FTUS41 KBOX 042337 AAA
TAFBOS
TAF AMD
KBOS 042337Z 0500/0606 26006KT 6SM TSRA BKN060CB
     FM050100 27005KT P6SM SCT070
     FM051700 25007KT P6SM VCSH BKN060
     FM052000 27009KT P6SM SCT060=

USA.gov is the U.S. government's official web portal to all federal, state and local government web resources and services.